Year,Month,Day,Hour,Minute,Value (Times are PST for temperature in C)
2018,08,24,00,00,13.20
2018,08,24,00,01,13.20
2018,08,24,00,02,13.20
2018,08,24,00,03,13.20
2018,08,24,00,04,13.20
2018,08,24,00,05,13.20
2018,08,24,00,06,13.20
2018,08,24,00,07,13.20
2018,08,24,00,08,13.20
2018,08,24,00,09,13.20
2018,08,24,00,10,13.20
2018,08,24,00,11,13.20
2018,08,24,00,12,13.20
2018,08,24,00,13,13.20
2018,08,24,00,14,13.20
2018,08,24,00,15,13.20
2018,08,24,00,16,13.20
2018,08,24,00,17,13.20
2018,08,24,00,18,13.20
2018,08,24,00,19,13.20
2018,08,24,00,20,13.20
2018,08,24,00,21,13.20
2018,08,24,00,22,13.20
2018,08,24,00,23,13.30
2018,08,24,00,24,13.20
2018,08,24,00,25,13.20
2018,08,24,00,26,13.20
2018,08,24,00,27,13.20
2018,08,24,00,28,13.20
2018,08,24,00,29,13.20
2018,08,24,00,30,13.20
2018,08,24,00,31,13.30
2018,08,24,00,32,13.20
2018,08,24,00,33,13.30
2018,08,24,00,34,13.30
2018,08,24,00,35,13.30
2018,08,24,00,36,13.30
2018,08,24,00,37,13.30
2018,08,24,00,38,13.30
2018,08,24,00,39,13.30
2018,08,24,00,40,13.30
2018,08,24,00,41,13.30
2018,08,24,00,42,13.30
2018,08,24,00,43,13.30
2018,08,24,00,44,13.30
2018,08,24,00,45,13.30
2018,08,24,00,46,13.30
2018,08,24,00,47,13.30
2018,08,24,00,48,13.30
2018,08,24,00,49,13.30
2018,08,24,00,50,13.40
2018,08,24,00,51,13.40
2018,08,24,00,52,13.40
2018,08,24,00,53,13.40
2018,08,24,00,54,13.40
2018,08,24,00,55,13.40
2018,08,24,00,56,13.40
2018,08,24,00,57,13.40
2018,08,24,00,58,13.40
2018,08,24,00,59,13.40
2018,08,24,01,00,13.40
2018,08,24,01,01,13.40
2018,08,24,01,02,13.40
2018,08,24,01,03,13.40
2018,08,24,01,04,13.40
2018,08,24,01,05,13.40
2018,08,24,01,06,13.40
2018,08,24,01,07,13.40
2018,08,24,01,08,13.40
2018,08,24,01,09,13.40
2018,08,24,01,10,13.40
2018,08,24,01,11,13.40
2018,08,24,01,12,13.40
2018,08,24,01,13,13.40
2018,08,24,01,14,13.40
2018,08,24,01,15,13.40
2018,08,24,01,16,13.40
2018,08,24,01,17,13.40
2018,08,24,01,18,13.40
2018,08,24,01,19,13.40
2018,08,24,01,20,13.40
2018,08,24,01,21,13.40
2018,08,24,01,22,13.40
2018,08,24,01,23,13.40
2018,08,24,01,24,13.40
2018,08,24,01,25,13.40
2018,08,24,01,26,13.40
2018,08,24,01,27,13.40
2018,08,24,01,28,13.40
2018,08,24,01,29,13.40
2018,08,24,01,30,13.40
2018,08,24,01,31,13.40
2018,08,24,01,32,13.40
2018,08,24,01,33,13.40
2018,08,24,01,34,13.30
2018,08,24,01,35,13.30
2018,08,24,01,36,13.30
2018,08,24,01,37,13.30
2018,08,24,01,38,13.30
2018,08,24,01,39,13.30
2018,08,24,01,40,13.30
2018,08,24,01,41,13.30
2018,08,24,01,42,13.30
2018,08,24,01,43,13.30
2018,08,24,01,44,13.30
2018,08,24,01,45,13.20
2018,08,24,01,46,13.20
2018,08,24,01,47,13.20
2018,08,24,01,48,13.20
2018,08,24,01,49,13.20
2018,08,24,01,50,13.10
2018,08,24,01,51,13.10
2018,08,24,01,52,13.10
2018,08,24,01,53,13.10
2018,08,24,01,54,13.00
2018,08,24,01,55,13.00
2018,08,24,01,56,13.00
2018,08,24,01,57,12.90
2018,08,24,01,58,12.90
2018,08,24,01,59,12.90
2018,08,24,02,00,12.90
2018,08,24,02,01,12.90
2018,08,24,02,02,12.80
2018,08,24,02,03,12.80
2018,08,24,02,04,12.80
2018,08,24,02,05,12.80
2018,08,24,02,06,12.80
2018,08,24,02,07,12.80
2018,08,24,02,08,12.80
2018,08,24,02,09,12.80
2018,08,24,02,10,12.80
2018,08,24,02,11,12.80
2018,08,24,02,12,12.80
2018,08,24,02,13,12.80
2018,08,24,02,14,12.80
2018,08,24,02,15,12.80
2018,08,24,02,16,12.80
2018,08,24,02,17,12.70
2018,08,24,02,18,12.70
2018,08,24,02,19,12.70
2018,08,24,02,20,12.70
2018,08,24,02,21,12.70
2018,08,24,02,22,12.70
2018,08,24,02,23,12.70
2018,08,24,02,24,12.70
2018,08,24,02,25,12.80
2018,08,24,02,26,12.80
2018,08,24,02,27,12.80
2018,08,24,02,28,12.80
2018,08,24,02,29,12.80
2018,08,24,02,30,12.80
2018,08,24,02,31,12.80
2018,08,24,02,32,12.80
2018,08,24,02,33,12.80
2018,08,24,02,34,12.80
2018,08,24,02,35,12.80
2018,08,24,02,36,12.80
2018,08,24,02,37,12.80
2018,08,24,02,38,12.80
2018,08,24,02,39,12.80
2018,08,24,02,40,12.80
2018,08,24,02,41,12.80
2018,08,24,02,42,12.80
2018,08,24,02,43,12.80
2018,08,24,02,44,12.80
2018,08,24,02,45,12.80
2018,08,24,02,46,12.80
2018,08,24,02,47,12.80
2018,08,24,02,48,12.80
2018,08,24,02,49,12.80
2018,08,24,02,50,12.80
2018,08,24,02,51,12.80
2018,08,24,02,52,12.80
2018,08,24,02,53,12.80
2018,08,24,02,54,12.80
2018,08,24,02,55,12.80
2018,08,24,02,56,12.80
2018,08,24,02,57,12.80
2018,08,24,02,58,12.80
2018,08,24,02,59,12.80
2018,08,24,03,00,12.80
2018,08,24,03,01,12.80
2018,08,24,03,02,12.80
2018,08,24,03,03,12.80
2018,08,24,03,04,12.80
2018,08,24,03,05,12.80
2018,08,24,03,06,12.80
2018,08,24,03,07,12.80
2018,08,24,03,08,12.80
2018,08,24,03,09,12.80
2018,08,24,03,10,12.80
2018,08,24,03,11,12.80
2018,08,24,03,12,12.80
2018,08,24,03,13,12.80
2018,08,24,03,14,12.80
2018,08,24,03,15,12.80
2018,08,24,03,16,12.70
2018,08,24,03,17,12.70
2018,08,24,03,18,12.70
2018,08,24,03,19,12.70
2018,08,24,03,20,12.70
2018,08,24,03,21,12.70
2018,08,24,03,22,12.70
2018,08,24,03,23,12.70
2018,08,24,03,24,12.70
2018,08,24,03,25,12.70
2018,08,24,03,26,12.70
2018,08,24,03,27,12.70
2018,08,24,03,28,12.70
2018,08,24,03,29,12.70
2018,08,24,03,30,12.60
2018,08,24,03,31,12.60
2018,08,24,03,32,12.60
2018,08,24,03,33,12.60
2018,08,24,03,34,12.60
2018,08,24,03,35,12.60
2018,08,24,03,36,12.50
2018,08,24,03,37,12.50
2018,08,24,03,38,12.50
2018,08,24,03,39,12.50
2018,08,24,03,40,12.50
2018,08,24,03,41,12.40
2018,08,24,03,42,12.40
2018,08,24,03,43,12.40
2018,08,24,03,44,12.40
2018,08,24,03,45,12.40
2018,08,24,03,46,12.40
2018,08,24,03,47,12.40
2018,08,24,03,48,12.30
2018,08,24,03,49,12.30
2018,08,24,03,50,12.30
2018,08,24,03,51,12.30
2018,08,24,03,52,12.30
2018,08,24,03,53,12.30
2018,08,24,03,54,12.30
2018,08,24,03,55,12.30
2018,08,24,03,56,12.30
2018,08,24,03,57,12.30
2018,08,24,03,58,12.30
2018,08,24,03,59,12.30
2018,08,24,04,00,12.30
2018,08,24,04,01,12.30
2018,08,24,04,02,12.30
2018,08,24,04,03,12.30
2018,08,24,04,04,12.30
2018,08,24,04,05,12.20
2018,08,24,04,06,12.20
2018,08,24,04,07,12.20
2018,08,24,04,08,12.20
2018,08,24,04,09,12.20
2018,08,24,04,10,12.20
2018,08,24,04,11,12.20
2018,08,24,04,12,12.10
2018,08,24,04,13,12.10
2018,08,24,04,14,12.10
2018,08,24,04,15,12.10
2018,08,24,04,16,12.10
2018,08,24,04,17,12.10
2018,08,24,04,18,12.10
2018,08,24,04,19,12.10
2018,08,24,04,20,12.10
2018,08,24,04,21,12.10
2018,08,24,04,22,12.10
2018,08,24,04,23,12.10
2018,08,24,04,24,12.10
2018,08,24,04,25,12.20
2018,08,24,04,26,12.20
2018,08,24,04,27,12.20
2018,08,24,04,28,12.20
2018,08,24,04,29,12.20
2018,08,24,04,30,12.20
2018,08,24,04,31,12.30
2018,08,24,04,32,12.30
2018,08,24,04,33,12.30
2018,08,24,04,34,12.40
2018,08,24,04,35,12.40
2018,08,24,04,36,12.40
2018,08,24,04,37,12.40
2018,08,24,04,38,12.40
2018,08,24,04,39,12.40
2018,08,24,04,40,12.40
2018,08,24,04,41,12.40
2018,08,24,04,42,12.40
2018,08,24,04,43,12.40
2018,08,24,04,44,12.30
2018,08,24,04,45,12.30
2018,08,24,04,46,12.30
2018,08,24,04,47,12.20
2018,08,24,04,48,12.20
2018,08,24,04,49,12.20
2018,08,24,04,50,12.20
2018,08,24,04,51,12.20
2018,08,24,04,52,12.20
2018,08,24,04,53,12.20
2018,08,24,04,54,12.20
2018,08,24,04,55,12.10
2018,08,24,04,56,12.10
2018,08,24,04,57,12.10
2018,08,24,04,58,12.10
2018,08,24,04,59,12.00
2018,08,24,05,00,12.00
2018,08,24,05,01,12.00
2018,08,24,05,02,11.90
2018,08,24,05,03,11.90
2018,08,24,05,04,11.90
2018,08,24,05,05,11.80
2018,08,24,05,06,11.80
2018,08,24,05,07,11.80
2018,08,24,05,08,11.80
2018,08,24,05,09,11.80
2018,08,24,05,10,11.80
2018,08,24,05,11,11.70
2018,08,24,05,12,11.70
2018,08,24,05,13,11.70
2018,08,24,05,14,11.70
2018,08,24,05,15,11.70
2018,08,24,05,16,11.70
2018,08,24,05,17,11.70
2018,08,24,05,18,11.70
2018,08,24,05,19,11.70
2018,08,24,05,20,11.70
2018,08,24,05,21,11.70
2018,08,24,05,22,11.60
2018,08,24,05,23,11.60
2018,08,24,05,24,11.60
2018,08,24,05,25,11.60
2018,08,24,05,26,11.60
2018,08,24,05,27,11.60
2018,08,24,05,28,11.60
2018,08,24,05,29,11.60
2018,08,24,05,30,11.60
2018,08,24,05,31,11.60
2018,08,24,05,32,11.60
2018,08,24,05,33,11.60
2018,08,24,05,34,11.60
2018,08,24,05,35,11.60
2018,08,24,05,36,11.60
2018,08,24,05,37,11.60
2018,08,24,05,38,11.60
2018,08,24,05,39,11.60
2018,08,24,05,40,11.60
2018,08,24,05,41,11.70
2018,08,24,05,42,11.70
2018,08,24,05,43,11.70
2018,08,24,05,44,11.70
2018,08,24,05,45,11.70
2018,08,24,05,46,11.70
2018,08,24,05,47,11.70
2018,08,24,05,48,11.70
2018,08,24,05,49,11.60
2018,08,24,05,50,11.60
2018,08,24,05,51,11.60
2018,08,24,05,52,11.60
2018,08,24,05,53,11.60
2018,08,24,05,54,11.60
2018,08,24,05,55,11.60
2018,08,24,05,56,11.60
2018,08,24,05,57,11.50
2018,08,24,05,58,11.50
2018,08,24,05,59,11.50
2018,08,24,06,00,11.50
2018,08,24,06,01,11.50
2018,08,24,06,02,11.50
2018,08,24,06,03,11.50
2018,08,24,06,04,11.50
2018,08,24,06,05,11.60
2018,08,24,06,06,11.60
2018,08,24,06,07,11.60
2018,08,24,06,08,11.70
2018,08,24,06,09,11.70
2018,08,24,06,10,11.70
2018,08,24,06,11,11.70
2018,08,24,06,12,11.70
2018,08,24,06,13,11.70
2018,08,24,06,14,11.80
2018,08,24,06,15,11.80
2018,08,24,06,16,11.80
2018,08,24,06,17,11.80
2018,08,24,06,18,11.80
2018,08,24,06,19,11.80
2018,08,24,06,20,11.80
2018,08,24,06,21,11.80
2018,08,24,06,22,11.80
2018,08,24,06,23,11.80
2018,08,24,06,24,11.80
2018,08,24,06,25,11.80
2018,08,24,06,26,11.80
2018,08,24,06,27,11.80
2018,08,24,06,28,11.80
2018,08,24,06,29,11.80
2018,08,24,06,30,11.80
2018,08,24,06,31,11.80
2018,08,24,06,32,11.80
2018,08,24,06,33,11.80
2018,08,24,06,34,11.80
2018,08,24,06,35,11.80
2018,08,24,06,36,11.80
2018,08,24,06,37,11.80
2018,08,24,06,38,11.80
2018,08,24,06,39,11.90
2018,08,24,06,40,11.90
2018,08,24,06,41,11.90
2018,08,24,06,42,11.90
2018,08,24,06,43,11.90
2018,08,24,06,44,11.90
2018,08,24,06,45,11.90
2018,08,24,06,46,11.90
2018,08,24,06,47,11.90
2018,08,24,06,48,11.90
2018,08,24,06,49,12.00
2018,08,24,06,50,12.00
2018,08,24,06,51,12.00
2018,08,24,06,52,12.10
2018,08,24,06,53,12.10
2018,08,24,06,54,12.10
2018,08,24,06,55,12.10
2018,08,24,06,56,12.10
2018,08,24,06,57,12.20
2018,08,24,06,58,12.20
2018,08,24,06,59,12.20
2018,08,24,07,00,12.20
2018,08,24,07,01,12.20
2018,08,24,07,02,12.20
2018,08,24,07,03,12.20
2018,08,24,07,04,12.20
2018,08,24,07,05,12.20
2018,08,24,07,06,12.30
2018,08,24,07,07,12.30
2018,08,24,07,08,12.30
2018,08,24,07,09,12.30
2018,08,24,07,10,12.30
2018,08,24,07,11,12.30
2018,08,24,07,12,12.30
2018,08,24,07,13,12.30
2018,08,24,07,14,12.30
2018,08,24,07,15,12.30
2018,08,24,07,16,12.40
2018,08,24,07,17,12.40
2018,08,24,07,18,12.40
2018,08,24,07,19,12.40
2018,08,24,07,20,12.40
2018,08,24,07,21,12.40
2018,08,24,07,22,12.40
2018,08,24,07,23,12.40
2018,08,24,07,24,12.40
2018,08,24,07,25,12.40
2018,08,24,07,26,12.50
2018,08,24,07,27,12.50
2018,08,24,07,28,12.50
2018,08,24,07,29,12.50
2018,08,24,07,30,12.50
2018,08,24,07,31,12.60
2018,08,24,07,32,12.60
2018,08,24,07,33,12.60
2018,08,24,07,34,12.60
2018,08,24,07,35,12.60
2018,08,24,07,36,12.70
2018,08,24,07,37,12.70
2018,08,24,07,38,12.70
2018,08,24,07,39,12.70
2018,08,24,07,40,12.70
2018,08,24,07,41,12.70
2018,08,24,07,42,12.70
2018,08,24,07,43,12.80
2018,08,24,07,44,12.80
2018,08,24,07,45,12.80
2018,08,24,07,46,12.80
2018,08,24,07,47,12.80
2018,08,24,07,48,12.90
2018,08,24,07,49,12.90
2018,08,24,07,50,12.90
2018,08,24,07,51,12.90
2018,08,24,07,52,13.00
2018,08,24,07,53,13.00
2018,08,24,07,54,13.10
2018,08,24,07,55,13.10
2018,08,24,07,56,13.10
2018,08,24,07,57,13.10
2018,08,24,07,58,13.20
2018,08,24,07,59,13.20
2018,08,24,08,00,13.20
2018,08,24,08,01,13.30
2018,08,24,08,02,13.30
2018,08,24,08,03,13.30
2018,08,24,08,04,13.30
2018,08,24,08,05,13.30
2018,08,24,08,06,13.40
2018,08,24,08,07,13.40
2018,08,24,08,08,13.40
2018,08,24,08,09,13.50
2018,08,24,08,10,13.50
2018,08,24,08,11,13.60
2018,08,24,08,12,13.60
2018,08,24,08,13,13.70
2018,08,24,08,14,13.70
2018,08,24,08,15,13.80
2018,08,24,08,16,13.80
2018,08,24,08,17,13.80
2018,08,24,08,18,13.80
2018,08,24,08,19,13.90
2018,08,24,08,20,13.90
2018,08,24,08,21,13.90
2018,08,24,08,22,14.00
2018,08,24,08,23,14.00
2018,08,24,08,24,14.00
2018,08,24,08,25,14.00
2018,08,24,08,26,14.10
2018,08,24,08,27,14.10
2018,08,24,08,28,14.10
2018,08,24,08,29,14.10
2018,08,24,08,30,14.10
2018,08,24,08,31,14.20
2018,08,24,08,32,14.20
2018,08,24,08,33,14.20
2018,08,24,08,34,14.30
2018,08,24,08,35,14.30
2018,08,24,08,36,14.30
2018,08,24,08,37,14.40
2018,08,24,08,38,14.40
2018,08,24,08,39,14.50
2018,08,24,08,40,14.60
2018,08,24,08,41,14.70
2018,08,24,08,42,14.70
2018,08,24,08,43,14.80
2018,08,24,08,44,14.80
2018,08,24,08,45,14.90
2018,08,24,08,46,14.90
2018,08,24,08,47,15.00
2018,08,24,08,48,15.00
2018,08,24,08,49,15.10
2018,08,24,08,50,15.10
2018,08,24,08,51,15.10
2018,08,24,08,52,15.10
2018,08,24,08,53,15.10
2018,08,24,08,54,15.10
2018,08,24,08,55,15.10
2018,08,24,08,56,15.10
2018,08,24,08,57,15.10
2018,08,24,08,58,15.10
2018,08,24,08,59,15.10
2018,08,24,09,00,15.20
2018,08,24,09,01,15.20
2018,08,24,09,02,15.30
2018,08,24,09,03,15.30
2018,08,24,09,04,15.40
2018,08,24,09,05,15.40
2018,08,24,09,06,15.50
2018,08,24,09,07,15.50
2018,08,24,09,08,15.50
2018,08,24,09,09,15.60
2018,08,24,09,10,15.60
2018,08,24,09,11,15.60
2018,08,24,09,12,15.60
2018,08,24,09,13,15.60
2018,08,24,09,14,15.50
2018,08,24,09,15,15.50
2018,08,24,09,16,15.40
2018,08,24,09,17,15.40
2018,08,24,09,18,15.40
2018,08,24,09,19,15.40
2018,08,24,09,20,15.40
2018,08,24,09,21,15.50
2018,08,24,09,22,15.50
2018,08,24,09,23,15.50
2018,08,24,09,24,15.60
2018,08,24,09,25,15.60
2018,08,24,09,26,15.70
2018,08,24,09,27,15.70
2018,08,24,09,28,15.70
2018,08,24,09,29,15.80
2018,08,24,09,30,15.80
2018,08,24,09,31,15.90
2018,08,24,09,32,15.90
2018,08,24,09,33,16.00
2018,08,24,09,34,16.00
2018,08,24,09,35,16.10
2018,08,24,09,36,16.10
2018,08,24,09,37,16.10
2018,08,24,09,38,16.20
2018,08,24,09,39,16.20
2018,08,24,09,40,16.30
2018,08,24,09,41,16.30
2018,08,24,09,42,16.30
2018,08,24,09,43,16.20
2018,08,24,09,44,16.30
2018,08,24,09,45,16.30
2018,08,24,09,46,16.40
2018,08,24,09,47,16.40
2018,08,24,09,48,16.50
2018,08,24,09,49,16.40
2018,08,24,09,50,16.40
2018,08,24,09,51,16.40
2018,08,24,09,52,16.40
2018,08,24,09,53,16.40
2018,08,24,09,54,16.40
2018,08,24,09,55,16.40
2018,08,24,09,56,16.40
2018,08,24,09,57,16.40
2018,08,24,09,58,16.40
2018,08,24,09,59,16.40
2018,08,24,10,00,16.40
2018,08,24,10,01,16.40
2018,08,24,10,02,16.40
2018,08,24,10,03,16.50
2018,08,24,10,04,16.40
2018,08,24,10,05,16.40
2018,08,24,10,06,16.40
2018,08,24,10,07,16.40
2018,08,24,10,08,16.40
2018,08,24,10,09,16.40
2018,08,24,10,10,16.50
2018,08,24,10,11,16.50
2018,08,24,10,12,16.60
2018,08,24,10,13,16.60
2018,08,24,10,14,16.70
2018,08,24,10,15,16.70
2018,08,24,10,16,16.80
2018,08,24,10,17,16.90
2018,08,24,10,18,17.00
2018,08,24,10,19,17.10
2018,08,24,10,20,17.10
2018,08,24,10,21,17.10
2018,08,24,10,22,17.10
2018,08,24,10,23,17.20
2018,08,24,10,24,17.20
2018,08,24,10,25,17.30
2018,08,24,10,26,17.30
2018,08,24,10,27,17.20
2018,08,24,10,28,16.90
2018,08,24,10,29,16.80
2018,08,24,10,30,16.70
2018,08,24,10,31,16.70
2018,08,24,10,32,16.70
2018,08,24,10,33,16.60
2018,08,24,10,34,16.50
2018,08,24,10,35,16.40
2018,08,24,10,36,16.30
2018,08,24,10,37,16.30
2018,08,24,10,38,16.40
2018,08,24,10,39,16.40
2018,08,24,10,40,16.40
2018,08,24,10,41,16.50
2018,08,24,10,42,16.50
2018,08,24,10,43,16.60
2018,08,24,10,44,16.60
2018,08,24,10,45,16.70
2018,08,24,10,46,16.70
2018,08,24,10,47,16.70
2018,08,24,10,48,16.60
2018,08,24,10,49,16.60
2018,08,24,10,50,16.60
2018,08,24,10,51,16.70
2018,08,24,10,52,16.80
2018,08,24,10,53,16.80
2018,08,24,10,54,16.80
2018,08,24,10,55,16.80
2018,08,24,10,56,16.70
2018,08,24,10,57,16.70
2018,08,24,10,58,16.70
2018,08,24,10,59,16.80
2018,08,24,11,00,16.80
2018,08,24,11,01,16.90
2018,08,24,11,02,16.90
2018,08,24,11,03,16.90
2018,08,24,11,04,16.90
2018,08,24,11,05,16.90
2018,08,24,11,06,17.00
2018,08,24,11,07,17.00
2018,08,24,11,08,17.00
2018,08,24,11,09,17.00
2018,08,24,11,10,17.00
2018,08,24,11,11,17.10
2018,08,24,11,12,17.10
2018,08,24,11,13,17.10
2018,08,24,11,14,17.10
2018,08,24,11,15,17.10
2018,08,24,11,16,17.00
2018,08,24,11,17,16.90
2018,08,24,11,18,16.90
2018,08,24,11,19,16.90
2018,08,24,11,20,16.90
2018,08,24,11,21,16.90
2018,08,24,11,22,16.90
2018,08,24,11,23,16.90
2018,08,24,11,24,16.90
2018,08,24,11,25,17.00
2018,08,24,11,26,17.00
2018,08,24,11,27,17.10
2018,08,24,11,28,17.20
2018,08,24,11,29,17.30
2018,08,24,11,30,17.30
2018,08,24,11,31,17.30
2018,08,24,11,32,17.30
2018,08,24,11,33,17.30
2018,08,24,11,34,17.30
2018,08,24,11,35,17.30
2018,08,24,11,36,17.40
2018,08,24,11,37,17.60
2018,08,24,11,38,17.80
2018,08,24,11,39,17.90
2018,08,24,11,40,18.00
2018,08,24,11,41,18.10
2018,08,24,11,42,18.20
2018,08,24,11,43,18.10
2018,08,24,11,44,18.00
2018,08,24,11,45,18.00
2018,08,24,11,46,17.90
2018,08,24,11,47,17.90
2018,08,24,11,48,17.90
2018,08,24,11,49,17.80
2018,08,24,11,50,17.70
2018,08,24,11,51,17.70
2018,08,24,11,52,17.70
2018,08,24,11,53,17.70
2018,08,24,11,54,17.70
2018,08,24,11,55,17.80
2018,08,24,11,56,17.80
2018,08,24,11,57,17.90
2018,08,24,11,58,18.00
2018,08,24,11,59,18.10
2018,08,24,12,00,18.20
2018,08,24,12,01,18.30
2018,08,24,12,02,18.40
2018,08,24,12,03,18.50
2018,08,24,12,04,18.50
2018,08,24,12,05,18.60
2018,08,24,12,06,18.80
2018,08,24,12,07,18.90
2018,08,24,12,08,18.90
2018,08,24,12,09,18.90
2018,08,24,12,10,18.90
2018,08,24,12,11,18.90
2018,08,24,12,12,18.90
2018,08,24,12,13,18.90
2018,08,24,12,14,19.00
2018,08,24,12,15,18.90
2018,08,24,12,16,18.80
2018,08,24,12,17,18.60
2018,08,24,12,18,18.50
2018,08,24,12,19,18.50
2018,08,24,12,20,18.50
2018,08,24,12,21,18.40
2018,08,24,12,22,18.40
2018,08,24,12,23,18.40
2018,08,24,12,24,18.40
2018,08,24,12,25,18.30
2018,08,24,12,26,18.30
2018,08,24,12,27,18.40
2018,08,24,12,28,18.40
2018,08,24,12,29,18.50
2018,08,24,12,30,18.60
2018,08,24,12,31,18.60
2018,08,24,12,32,18.60
2018,08,24,12,33,18.60
2018,08,24,12,34,18.70
2018,08,24,12,35,18.80
2018,08,24,12,36,18.90
2018,08,24,12,37,19.10
2018,08,24,12,38,19.20
2018,08,24,12,39,19.10
2018,08,24,12,40,18.90
2018,08,24,12,41,18.70
2018,08,24,12,42,18.60
2018,08,24,12,43,18.50
2018,08,24,12,44,18.40
2018,08,24,12,45,18.50
2018,08,24,12,46,18.60
2018,08,24,12,47,18.60
2018,08,24,12,48,18.70
2018,08,24,12,49,18.70
2018,08,24,12,50,18.70
2018,08,24,12,51,18.70
2018,08,24,12,52,18.80
2018,08,24,12,53,18.90
2018,08,24,12,54,18.90
2018,08,24,12,55,18.90
2018,08,24,12,56,18.90
2018,08,24,12,57,18.80
2018,08,24,12,58,18.70
2018,08,24,12,59,18.80
2018,08,24,13,00,18.80
2018,08,24,13,01,18.90
2018,08,24,13,02,19.00
2018,08,24,13,03,19.10
2018,08,24,13,04,19.00
2018,08,24,13,05,18.90
2018,08,24,13,06,18.90
2018,08,24,13,07,18.90
2018,08,24,13,08,18.90
2018,08,24,13,09,18.90
2018,08,24,13,10,18.90
2018,08,24,13,11,18.80
2018,08,24,13,12,18.90
2018,08,24,13,13,18.90
2018,08,24,13,14,18.90
2018,08,24,13,15,18.90
2018,08,24,13,16,18.80
2018,08,24,13,17,18.80
2018,08,24,13,18,18.90
2018,08,24,13,19,18.90
2018,08,24,13,20,19.00
2018,08,24,13,21,19.10
2018,08,24,13,22,19.10
2018,08,24,13,23,19.00
2018,08,24,13,24,18.90
2018,08,24,13,25,18.90
2018,08,24,13,26,18.90
2018,08,24,13,27,18.90
2018,08,24,13,28,18.90
2018,08,24,13,29,18.90
2018,08,24,13,30,18.90
2018,08,24,13,31,18.90
2018,08,24,13,32,18.90
2018,08,24,13,33,18.90
2018,08,24,13,34,18.80
2018,08,24,13,35,18.80
2018,08,24,13,36,18.90
2018,08,24,13,37,18.90
2018,08,24,13,38,18.80
2018,08,24,13,39,18.80
2018,08,24,13,40,18.90
2018,08,24,13,41,19.00
2018,08,24,13,42,19.10
2018,08,24,13,43,19.20
2018,08,24,13,44,19.20
2018,08,24,13,45,19.30
2018,08,24,13,46,19.30
2018,08,24,13,47,19.30
2018,08,24,13,48,19.30
2018,08,24,13,49,19.30
2018,08,24,13,50,19.20
2018,08,24,13,51,19.20
2018,08,24,13,52,19.20
2018,08,24,13,53,19.20
2018,08,24,13,54,19.20
2018,08,24,13,55,19.20
2018,08,24,13,56,19.10
2018,08,24,13,57,18.90
2018,08,24,13,58,18.80
2018,08,24,13,59,18.80
2018,08,24,14,00,18.80
2018,08,24,14,01,18.80
2018,08,24,14,02,18.90
2018,08,24,14,03,19.00
2018,08,24,14,04,19.20
2018,08,24,14,05,19.30
2018,08,24,14,06,19.40
2018,08,24,14,07,19.40
2018,08,24,14,08,19.40
2018,08,24,14,09,19.30
2018,08,24,14,10,19.40
2018,08,24,14,11,19.50
2018,08,24,14,12,19.50
2018,08,24,14,13,19.60
2018,08,24,14,14,19.60
2018,08,24,14,15,19.70
2018,08,24,14,16,19.70
2018,08,24,14,17,19.60
2018,08,24,14,18,19.50
2018,08,24,14,19,19.40
2018,08,24,14,20,19.40
2018,08,24,14,21,19.20
2018,08,24,14,22,19.10
2018,08,24,14,23,19.00
2018,08,24,14,24,19.10
2018,08,24,14,25,19.10
2018,08,24,14,26,19.10
2018,08,24,14,27,19.00
2018,08,24,14,28,18.90
2018,08,24,14,29,18.80
2018,08,24,14,30,18.70
2018,08,24,14,31,18.70
2018,08,24,14,32,18.60
2018,08,24,14,33,18.60
2018,08,24,14,34,18.80
2018,08,24,14,35,19.00
2018,08,24,14,36,19.30
2018,08,24,14,37,19.40
2018,08,24,14,38,19.30
2018,08,24,14,39,19.20
2018,08,24,14,40,19.10
2018,08,24,14,41,18.90
2018,08,24,14,42,18.80
2018,08,24,14,43,18.80
2018,08,24,14,44,18.80
2018,08,24,14,45,18.80
2018,08,24,14,46,18.90
2018,08,24,14,47,18.90
2018,08,24,14,48,18.90
2018,08,24,14,49,18.90
2018,08,24,14,50,19.00
2018,08,24,14,51,19.10
2018,08,24,14,52,19.10
2018,08,24,14,53,19.20
2018,08,24,14,54,19.20
2018,08,24,14,55,19.20
2018,08,24,14,56,19.20
2018,08,24,14,57,19.20
2018,08,24,14,58,19.20
2018,08,24,14,59,19.20
2018,08,24,15,00,19.20
2018,08,24,15,01,19.30
2018,08,24,15,02,19.40
2018,08,24,15,03,19.40
2018,08,24,15,04,19.40
2018,08,24,15,05,19.40
2018,08,24,15,06,19.40
2018,08,24,15,07,19.30
2018,08,24,15,08,19.10
2018,08,24,15,09,19.10
2018,08,24,15,10,19.10
2018,08,24,15,11,19.20
2018,08,24,15,12,19.20
2018,08,24,15,13,19.20
2018,08,24,15,14,19.20
2018,08,24,15,15,19.20
2018,08,24,15,16,19.20
2018,08,24,15,17,19.20
2018,08,24,15,18,19.30
2018,08,24,15,19,19.40
2018,08,24,15,20,19.40
2018,08,24,15,21,19.40
2018,08,24,15,22,19.40
2018,08,24,15,23,19.40
2018,08,24,15,24,19.50
2018,08,24,15,25,19.50
2018,08,24,15,26,19.50
2018,08,24,15,27,19.50
2018,08,24,15,28,19.40
2018,08,24,15,29,19.40
2018,08,24,15,30,19.40
2018,08,24,15,31,19.40
2018,08,24,15,32,19.40
2018,08,24,15,33,19.40
2018,08,24,15,34,19.40
2018,08,24,15,35,19.40
2018,08,24,15,36,19.40
2018,08,24,15,37,19.30
2018,08,24,15,38,19.30
2018,08,24,15,39,19.30
2018,08,24,15,40,19.40
2018,08,24,15,41,19.50
2018,08,24,15,42,19.60
2018,08,24,15,43,19.70
2018,08,24,15,44,19.70
2018,08,24,15,45,19.70
2018,08,24,15,46,19.60
2018,08,24,15,47,19.50
2018,08,24,15,48,19.40
2018,08,24,15,49,19.40
2018,08,24,15,50,19.40
2018,08,24,15,51,19.40
2018,08,24,15,52,19.40
2018,08,24,15,53,19.40
2018,08,24,15,54,19.50
2018,08,24,15,55,19.60
2018,08,24,15,56,19.70
2018,08,24,15,57,19.70
2018,08,24,15,58,19.70
2018,08,24,15,59,19.70
2018,08,24,16,00,19.70
2018,08,24,16,01,19.70
2018,08,24,16,02,19.80
2018,08,24,16,03,19.90
2018,08,24,16,04,19.80
2018,08,24,16,05,19.70
2018,08,24,16,06,19.70
2018,08,24,16,07,19.70
2018,08,24,16,08,19.70
2018,08,24,16,09,19.60
2018,08,24,16,10,19.60
2018,08,24,16,11,19.60
2018,08,24,16,12,19.60
2018,08,24,16,13,19.60
2018,08,24,16,14,19.60
2018,08,24,16,15,19.60
2018,08,24,16,16,19.50
2018,08,24,16,17,19.50
2018,08,24,16,18,19.60
2018,08,24,16,19,19.60
2018,08,24,16,20,19.50
2018,08,24,16,21,19.40
2018,08,24,16,22,19.40
2018,08,24,16,23,19.40
2018,08,24,16,24,19.50
2018,08,24,16,25,19.50
2018,08,24,16,26,19.30
2018,08,24,16,27,19.20
2018,08,24,16,28,19.10
2018,08,24,16,29,19.20
2018,08,24,16,30,19.30
2018,08,24,16,31,19.40
2018,08,24,16,32,19.40
2018,08,24,16,33,19.40
2018,08,24,16,34,19.40
2018,08,24,16,35,19.40
2018,08,24,16,36,19.40
2018,08,24,16,37,19.40
2018,08,24,16,38,19.40
2018,08,24,16,39,19.60
2018,08,24,16,40,19.60
2018,08,24,16,41,19.70
2018,08,24,16,42,19.70
2018,08,24,16,43,19.60
2018,08,24,16,44,19.50
2018,08,24,16,45,19.40
2018,08,24,16,46,19.40
2018,08,24,16,47,19.40
2018,08,24,16,48,19.50
2018,08,24,16,49,19.40
2018,08,24,16,50,19.50
2018,08,24,16,51,19.50
2018,08,24,16,52,19.50
2018,08,24,16,53,19.50
2018,08,24,16,54,19.50
2018,08,24,16,55,19.50
2018,08,24,16,56,19.60
2018,08,24,16,57,19.70
2018,08,24,16,58,19.70
2018,08,24,16,59,19.70
2018,08,24,17,00,19.70
2018,08,24,17,01,19.70
2018,08,24,17,02,19.60
2018,08,24,17,03,19.60
2018,08,24,17,04,19.50
2018,08,24,17,05,19.50
2018,08,24,17,06,19.40
2018,08,24,17,07,19.40
2018,08,24,17,08,19.50
2018,08,24,17,09,19.50
2018,08,24,17,10,19.50
2018,08,24,17,11,19.50
2018,08,24,17,12,19.50
2018,08,24,17,13,19.50
2018,08,24,17,14,19.50
2018,08,24,17,15,19.40
2018,08,24,17,16,19.30
2018,08,24,17,17,19.30
2018,08,24,17,18,19.30
2018,08,24,17,19,19.30